Regional Weather Roundup
Issued by NWS New Orleans/Baton Rouge, LA

Home | Current Version | Previous Version | Text Only | Print | Product List | Glossary Off
Versions: 1 2 3 4 5 6 7 8 9 10 11 12 13 14 15 16 17 18 19 20 21 22 23 24 25 26 27 28 29 30 31 32 33 34 35 36 37 38 39 40 41 42 43 44 45 46 47 48 49 50

840
ASUS44 KLIX 181911
RWRLIX
NEW ORLEANS REGIONAL WEATHER ROUNDUP
NATIONAL WEATHER SERVICE NEW ORLEANS LA
200 PM CDT SAT APR 18 2015

NOTE: "FAIR" INDICATES FEW OR NO CLOUDS BELOW 12,000 FEET WITH NO
      SIGNIFICANT WEATHER AND/OR OBSTRUCTIONS TO VISIBILITY.
      SKY/WX - SKY CONDITION AND SIGNIFICANT WEATHER.
      TMP - AIR TEMPERATURE.     DP    - DEWPOINT TEMPERATURE.
      RH  - RELATIVE HUMIDITY.   PRES  - PRESSURE.
      HI  - HEAT INDEX.          WCI   - WIND CHILL INDEX.

*  THESE STATIONS ARE NOT NWS OR FAA STATIONS AND ARE NOT UNDER
   NWS QUALITY CONTROL.

LAZ038-040-048-061>063-065>067-069-182000-
SOUTHEAST LOUISIANA

CITY           SKY/WX    TMP DP  RH WIND       PRES   REMARKS
N.O. AUDUBON     N/A     77  73  87 MISG        N/A
N.O. INTL ARPT CLOUDY    78  69  73 SE12G22   29.85F
N.O. LAKEFRONT CLOUDY    80  70  71 SE16G24   29.85F
SLIDELL        CLOUDY    76  69  79 SE10G18   29.86F
BATON ROUGE    PTSUNNY   79  69  71 SE9       29.84F
BOOTHVILLE     LGT RAIN  71  70  96 E12G21    29.85F
BELLE CHASSE   CLOUDY    76  70  82 SE14      29.85F
BOGALUSA*        N/A     77  68  72 S8        29.89F
GALLIANO*      CLOUDY    76  71  84 SE5       29.86S
NEW ROADS*     MOCLDY    77  69  76 S8        29.86F
GONZALES*        N/A     78  69  73 SE9       29.85F
HAMMOND*       CLOUDY    79  68  69 SE13      29.88F
HOUMA*         MOSUNNY   75  70  83 SE12      29.86F
PORT FOURCHON* CLEAR     73  70  88 SE15G23   29.90R

$$

MSZ070-080>082-182000-
SOUTHERN MISSISSIPPI

CITY           SKY/WX    TMP DP  RH WIND       PRES   REMARKS
MCCOMB         CLOUDY    78  68  71 S7        29.86F
GULFPORT       CLOUDY    74  69  85 SE16      29.86F
BILOXI         CLOUDY    75  72  91 S9        29.87F
PASCAGOULA     CLOUDY    76  69  79 S13       29.90F
STENNIS ARPT*  PTSUNNY   75  66  73 MISG      29.86F

$$

COASTAL OBSERVATIONS
LAKE AND NEARSHORE STATIONS

STATION/POSITION TIME  TEMP    WIND        PRES    WAVE
                       AIR SEA DIR/SP/G            HT/PER
                 (UTC) (F)     (DEG/KT/KT) (MB)    (FT/S)
PASCAGOULA       1800   74     150/  6/ 16 1012.3
WAVELAND YACHT   1800   74 73  150/ 14/ 17 1012.5
GRAND ISLE       1800   72 75  110/ 11/ 17 1011.5
SOUTHWEST PASS   1800   70 63  100/ 17/ 17 1013.5
NEW CANAL        1806   75     130/  2/  9 1011.7
SHELL BEACH      1800   74 75  110/ 15/ 18 1011.4

OFFSHORE STATIONS

STATION/POSITION TIME  TEMP    WIND        PRES    WAVE
                       AIR SEA DIR/SP/G            HT/PER
                 (UTC) (F)     (DEG/KT/KT) (MB)    (FT/S)
64 S DAUPHIN ISL 1850   70 75  350/  2/  4 1014.8    2/ 7

$$




USA.gov is the U.S. government's official web portal to all federal, state and local government web resources and services.